Voltar ao catálogo

NANOACE

AtivoCiênciaSSO
NORAD 42844·PAYLOAD·🇺🇸 United States

Lançado Jul 14, 2017 de Baikonur Cosmodrome

Loading…

Próximas Passagens (próximas 24 horas)

TLE

AtualizadoSource: Space-Track

Época: Sep 14, 2026, 10:33 UTC

1 42844U 17042V   26257.44026628  .00009446  00000-0  36653-3 0  9999
2 42844  97.3801  70.4568 0005207  67.1378 293.0410 15.26306515501681

Acompanhe NANOACE em tempo real com AllMySat

Download on the App Store